CST,Max TemperatureF,Mean TemperatureF,Min TemperatureF,Max Dew PointF,MeanDew PointF,Min DewpointF,Max Humidity, Mean Humidity, Min Humidity, Max Sea Level PressureIn, Mean Sea Level PressureIn, Min Sea Level PressureIn, Max VisibilityMiles, Mean VisibilityMiles, Min VisibilityMiles, Max Wind SpeedMPH, Mean Wind SpeedMPH, Max Gust SpeedMPH,PrecipitationIn, CloudCover, Events, WindDirDegrees
2013-11-1,62,53,44,48,44,39,93,73,48,29.85,29.74,29.65,10,10,9,16,7,21,0.21,2,,234
2013-11-2,53,43,33,43,37,30,93,78,54,30.20,30.01,29.85,10,10,2,12,2,16,0.00,4,,285
2013-11-3,57,42,28,37,32,25,93,68,41,30.33,30.26,30.19,10,8,1,9,2,,0.00,0,,119
2013-11-4,59,50,42,46,40,34,82,65,54,30.30,30.25,30.21,10,10,3,16,7,21,0.00,1,,160
2013-11-5,66,58,50,50,47,45,94,70,52,30.34,30.23,30.11,10,10,3,13,5,17,0.03,6,,156
2013-11-6,62,50,37,54,45,34,94,82,63,30.24,30.09,30.00,10,10,3,22,11,29,0.40,7,,217
2013-11-7,51,40,30,34,31,27,93,72,46,30.40,30.32,30.25,10,10,5,10,2,,0.00,0,,258
2013-11-8,55,40,26,36,29,21,93,63,38,30.41,30.30,30.16,10,10,5,14,3,17,0.00,0,,166
2013-11-9,64,50,37,43,38,30,93,64,42,30.23,30.15,30.10,10,9,2,18,9,24,0.00,0,,215
2013-11-10,55,42,30,37,31,25,93,65,36,30.42,30.34,30.23,10,9,2,7,1,,0.00,0,,332
2013-11-11,60,45,30,43,34,27,87,67,42,30.42,30.25,30.14,10,10,5,15,5,24,0.00,5,,237
2013-11-12,35,28,19,30,18,16,86,63,48,30.72,30.65,30.43,10,10,9,13,7,24,0.00,2,,357
2013-11-13,42,28,15,25,17,10,86,62,36,30.70,30.57,30.37,10,10,10,13,3,,0.00,0,,194
2013-11-14,55,40,26,27,23,18,74,53,28,30.36,30.23,30.11,10,10,10,20,9,25,0.00,0,,193
2013-11-15,53,45,37,45,33,25,87,61,44,30.13,30.07,30.02,10,10,10,13,7,,0.00,6,,176
2013-11-16,64,56,48,59,52,45,88,81,68,30.01,29.89,29.71,10,9,5,22,11,28,0.17,7,,172
2013-11-17,75,63,51,66,46,28,94,56,27,29.97,29.68,29.48,10,10,4,30,16,41,0.55,4,Thunderstorm,218
2013-11-18,55,42,30,39,32,25,87,65,38,30.30,30.16,29.99,10,10,9,12,4,20,0.00,0,,280
2013-11-19,46,35,24,28,25,19,86,67,43,30.37,30.30,30.24,10,10,3,9,4,,0.00,0,,48
2013-11-20,53,42,30,36,31,23,80,65,51,30.25,30.18,30.11,10,10,4,17,6,23,0.00,3,,107
2013-11-21,53,50,48,50,45,36,94,80,51,30.21,30.17,30.13,10,6,0,17,8,23,0.71,8,,171
2013-11-22,51,44,37,50,39,28,94,82,70,30.49,30.37,30.19,10,7,1,10,3,17,0.03,7,,346
2013-11-23,35,27,19,28,18,7,86,62,41,30.69,30.58,30.48,10,10,10,13,5,22,0.00,2,,349
2013-11-24,30,22,15,18,10,5,80,59,40,30.76,30.64,30.48,10,10,10,8,3,,0.00,0,,38
2013-11-25,35,30,26,23,19,14,65,58,48,30.47,30.31,30.19,10,10,10,13,5,,0.00,7,,182
2013-11-26,42,33,24,27,22,7,86,61,43,30.21,30.12,30.02,10,10,10,14,4,24,0.00,6,,335
2013-11-27,28,22,15,10,7,3,79,54,40,30.35,30.28,30.18,10,10,10,9,5,16,0.00,0,,325
2013-11-28,44,29,14,23,16,9,93,64,39,30.49,30.36,30.28,10,10,10,18,5,24,0.00,0,,201
2013-11-29,46,32,17,27,21,10,86,66,46,30.62,30.52,30.43,10,10,10,9,3,,0.00,0,,75
2013-11-30,55,37,19,34,27,14,93,65,38,30.42,30.27,30.15,10,10,8,17,5,23,0.00,0,,194